COSMOS 249 DEB *

基本信息
目录编号:
6176
目录名称:
COSMOS 249 DEB *
国际标识:
1968-091CG
轨道中心:
EARTH
物体状态:
在轨
发射日期:
1968-10-20 UTC
轨道信息
数据来源: 国际轨道数据
星历时间: 2026-07-12T06:10:20+0800
半长轴: 7606.946km
偏心率: 0.0461232
轨道倾角: 65.726°
近地点辐角: 29.104°
升交点赤经: 173.174°
平近点角: 333.488°
近地点: 877.952km
远地点: 1579.666km
周期: 110.046分钟
每日圈数: 13.08541
详细信息
发射场:
TTMTR
轨道高度:
LEO
数据来源:
AOE Integration Group
参考系:
TEME
时间系统:
UTC
历元类型:
SGP4
2D轨道图
3D轨道图
轨道高度分析图
轨道倾角分析图
轨道综合分析图
查看轨道综合分析图